Weather History for KSHN - August, 2012

Change the Weather History Date:

Friday, August 24, 2012

  Actual Average (KOLM) Record (KOLM)
Temperature  
Mean Temperature 56 °F 63 °F  
Max Temperature 73 °F 77 °F 94 °F (1982)
Min Temperature 39 °F 50 °F 38 °F (2003)
Degree Days  
Heating Degree Days 10 2  
Month to date heating degree days 48  
Since 1 June heating degree days 316  
Since 1 July heating degree days 128  
Cooling Degree Days 0 1  
Month to date cooling degree days 40  
Year to date cooling degree days 97  
Since 1 June cooling degree days 94  
Growing Degree Days 6 (Base 50)    
Moisture  
Dew Point 45 °F    
Average Humidity 67    
Maximum Humidity 96    
Minimum Humidity 39    
Precipitation  
Precipitation 0.00 in 0.04 in 0.61 in (2004)
Month to date precipitation 0.62  
Year to date precipitation 27.28  
Sea Level Pressure  
Sea Level Pressure 30.12 in    
Wind  
Wind Speed 2 mph (ENE)    
Max Wind Speed 10 mph    
Max Gust Speed -    
Visibility 10 miles    
Events      
T = Trace of Precipitation, MM = Missing Value Source: NWS Daily Summary

Daily Weather History Graph

Daily Weather History Graph

Search for Another Location

Airport or City:

Trip Planner

Search our weather history database for the weather conditions in past years. The results will help you decide how hot, cold, wet, or windy it might be!

Date:

Astronomy

Aug. 24, 2012 Rise Set
Actual Time 6:21 AM PDT 8:06 PM PDT
Civil Twilight 5:49 AM PDT 8:38 PM PDT
Nautical Twilight 5:09 AM PDT 9:18 PM PDT
Astronomical Twilight 4:26 AM PDT 10:01 PM PDT
Moon 2:55 PM PDT (8/24) 11:58 PM PDT (8/24)
Length of Visible Light 14h 49m
Length of Day
13h 44m
First Quarter, 52% of the Moon is Illuminated
Aug 24
First Quarter
Aug 31
Full
Sep 8
Last Quarter
Sep 15
New
Sep 22
First Quarter

Hourly Weather History & Observations

Time (PDT) Temp. Windchill Dew Point Humidity Pressure Visibility Wind Dir Wind Speed Gust Speed Precip Events Conditions
12:53 AM 48.0 °F - 45.0 °F 89% 30.12 in 10.0 mi Calm Calm - N/A   Clear
1:53 AM 44.1 °F 42.5 °F 42.1 °F 93% 30.13 in 10.0 mi WSW 3.5 mph - N/A   Clear
2:53 AM 45.0 °F - 43.0 °F 93% 30.14 in 10.0 mi Calm Calm - N/A   Clear
3:53 AM 45.0 °F - 43.0 °F 93% 30.14 in 10.0 mi Calm Calm - N/A   Clear
4:53 AM 41.0 °F - 39.9 °F 96% 30.15 in 10.0 mi Calm Calm - N/A   Clear
5:53 AM 39.0 °F - 37.0 °F 93% 30.17 in 10.0 mi Calm Calm - N/A   Clear
6:53 AM 39.0 °F - 37.9 °F 96% 30.17 in 10.0 mi Calm Calm - N/A   Clear
7:53 AM 46.0 °F - 44.1 °F 93% 30.19 in 10.0 mi Calm Calm - N/A   Clear
8:53 AM 54.0 °F - 46.9 °F 77% 30.19 in 10.0 mi Calm Calm - N/A   Clear
9:53 AM 57.9 °F - 46.9 °F 67% 30.19 in 10.0 mi NNE 3.5 mph - N/A   Clear
10:53 AM 62.1 °F - 48.0 °F 60% 30.19 in 10.0 mi East 5.8 mph - N/A   Partly Cloudy
11:14 AM 64.4 °F - 48.2 °F 56% 30.18 in 10.0 mi ESE 5.8 mph - N/A   Mostly Cloudy
11:34 AM 62.6 °F - 48.2 °F 59% 30.18 in 10.0 mi ESE 5.8 mph - N/A   Scattered Clouds
11:53 AM 63.0 °F - 48.0 °F 58% 30.18 in 10.0 mi NE 3.5 mph - N/A   Partly Cloudy
12:53 PM 66.0 °F - 46.9 °F 50% 30.16 in 10.0 mi Variable 3.5 mph - N/A   Partly Cloudy
1:53 PM 69.1 °F - 46.0 °F 44% 30.15 in 10.0 mi ESE 10.4 mph - N/A   Partly Cloudy
2:53 PM 70.0 °F - 44.1 °F 39% 30.12 in 10.0 mi East 8.1 mph - N/A   Clear
3:53 PM 71.1 °F - 45.0 °F 39% 30.09 in 10.0 mi Variable 4.6 mph - N/A   Clear
4:53 PM 72.0 °F - 46.0 °F 40% 30.08 in 10.0 mi East 6.9 mph - N/A   Clear
5:53 PM 72.0 °F - 46.9 °F 41% 30.05 in 10.0 mi NNE 5.8 mph - N/A   Clear
6:53 PM 70.0 °F - 46.0 °F 42% 30.04 in 10.0 mi NNE 9.2 mph - N/A   Clear
7:53 PM 66.0 °F - 46.0 °F 48% 30.04 in 10.0 mi NNE 4.6 mph - N/A   Clear
8:53 PM 62.1 °F - 46.9 °F 58% 30.04 in 10.0 mi NNE 5.8 mph - N/A   Clear
9:53 PM 60.1 °F - 46.0 °F 60% 30.03 in 10.0 mi Calm Calm - N/A   Clear
10:53 PM 52.0 °F - 46.9 °F 83% 30.01 in 10.0 mi Calm Calm - N/A   Clear
11:53 PM 51.1 °F - 46.0 °F 83% 30.00 in 10.0 mi Calm Calm - N/A   Clear